• In Belarus
  • List of Countries
  • For 7 days
  • Water Temperature
  • Satellite Maps
  • Weather Map
  • Weather Widgets
  • user-avatar
    Login

    Hourly Weather Bogorodchany

    Today, 18 June, Monday

    Time Temperature Precipitation Wind Pressure Humidity
    00:00 +19°C° 0.5 mm 3 mps 729 mmHg 100%
    01:00 +19°C° 0.2 mm 3 mps 729 mmHg 100%
    02:00 +16°C° 0 mm 1 mps 730 mmHg 100%
    03:00 +16°C° 0 mm 1 mps 730 mmHg 100%
    04:00 +16°C° 0 mm 1 mps 730 mmHg 100%
    05:00 +16°C° 0 mm 1 mps 730 mmHg 100%
    06:00 +16°C° 0 mm 1 mps 731 mmHg 100%
    07:00 +16°C° 0 mm 1 mps 731 mmHg 100%
    08:00 +16°C° 0 mm 0 mps 731 mmHg 98%
    09:00 +20°C° 0 mm 1 mps 731 mmHg 98%
    10:00 +21°C° 0 mm 1 mps 732 mmHg 97%
    11:00 +22°C° 0 mm 1 mps 732 mmHg 96%
    12:00 +21°C° 0 mm 2 mps 732 mmHg 92%
    13:00 +24°C° 0 mm 2 mps 731 mmHg 89%
    14:00 +25°C° 0 mm 2 mps 731 mmHg 86%
    15:00 +25°C° 0 mm 2 mps 731 mmHg 85%
    16:00 +26°C° 0 mm 3 mps 730 mmHg 83%
    17:00 +26°C° 0 mm 3 mps 730 mmHg 82%
    18:00 +26°C° 0 mm 3 mps 731 mmHg 81%
    19:00 +22°C° 0 mm 4 mps 731 mmHg 93%
    20:00 +21°C° 0 mm 2 mps 731 mmHg 95%
    21:00 +20°C° 0 mm 0 mps 731 mmHg 93%
    22:00 +20°C° 0 mm 2 mps 731 mmHg 98%
    23:00 +21°C° 0 mm 1 mps 731 mmHg 99%

    Tomorrow, 19 June, Tuesday

    Time Temperature Precipitation Wind Pressure Humidity
    00:00 +18°C° 0 mm 0 mps 731 mmHg 100%
    01:00 +20°C° 0 mm 1 mps 731 mmHg 99%
    02:00 +20°C° 0 mm 1 mps 732 mmHg 98%
    03:00 +19°C° 0 mm 1 mps 732 mmHg 99%
    04:00 +19°C° 0 mm 1 mps 732 mmHg 100%
    05:00 +18°C° 0 mm 1 mps 732 mmHg 99%
    06:00 +18°C° 0 mm 2 mps 732 mmHg 99%
    07:00 +20°C° 0 mm 1 mps 733 mmHg 98%
    08:00 +20°C° 0 mm 0 mps 733 mmHg 95%
    09:00 +21°C° 0 mm 0 mps 734 mmHg 92%
    10:00 +24°C° 0 mm 1 mps 734 mmHg 91%
    11:00 +24°C° 0 mm 1 mps 735 mmHg 91%
    12:00 +25°C° 0 mm 3 mps 735 mmHg 94%
    13:00 +25°C° 1.1 mm 3 mps 735 mmHg 94%
    14:00 +25°C° 0.4 mm 2 mps 734 mmHg 91%
    15:00 +25°C° 1.7 mm 1 mps 734 mmHg 90%
    16:00 +26°C° 0 mm 1 mps 734 mmHg 86%
    17:00 +26°C° 0 mm 2 mps 734 mmHg 86%
    18:00 +26°C° 0 mm 2 mps 734 mmHg 86%
    19:00 +25°C° 0 mm 2 mps 734 mmHg 91%
    20:00 +25°C° 0 mm 1 mps 734 mmHg 96%
    21:00 +24°C° 0 mm 1 mps 735 mmHg 93%
    22:00 +23°C° 0 mm 1 mps 735 mmHg 97%
    23:00 +21°C° 0 mm 2 mps 735 mmHg 100%

    Day after tomorrow, 20 June, Wednesday

    Time Temperature Precipitation Wind Pressure Humidity
    00:00 +22°C° 0 mm 1 mps 736 mmHg 100%
    01:00 +21°C° 0 mm 1 mps 735 mmHg 100%
    02:00 +21°C° 0 mm 1 mps 736 mmHg 100%
    03:00 +21°C° 0 mm 1 mps 736 mmHg 100%
    04:00 +21°C° 0 mm 1 mps 736 mmHg 100%
    05:00 +21°C° 0 mm 1 mps 736 mmHg 100%
    06:00 +21°C° 0 mm 1 mps 736 mmHg 100%
    07:00 +21°C° 0 mm 1 mps 737 mmHg 100%
    08:00 +22°C° 0 mm 1 mps 737 mmHg 98%
    09:00 +23°C° 0 mm 1 mps 737 mmHg 97%
    10:00 +23°C° 0 mm 2 mps 737 mmHg 94%
    11:00 +24°C° 0 mm 2 mps 737 mmHg 92%
    12:00 +25°C° 0 mm 2 mps 737 mmHg 89%
    13:00 +26°C° 0 mm 2 mps 737 mmHg 84%
    14:00 +26°C° 0 mm 2 mps 737 mmHg 84%
    15:00 +26°C° 0 mm 2 mps 737 mmHg 86%
    16:00 +26°C° 0 mm 2 mps 736 mmHg 81%
    17:00 +26°C° 0 mm 2 mps 736 mmHg 82%
    18:00 +26°C° 0 mm 1 mps 736 mmHg 83%
    19:00 +26°C° 0 mm 1 mps 735 mmHg 88%
    20:00 +25°C° 0 mm 1 mps 736 mmHg 91%
    21:00 +24°C° 0 mm 1 mps 736 mmHg 87%
    22:00 +24°C° 0 mm 1 mps 736 mmHg 89%
    23:00 +21°C° 0 mm 0 mps 736 mmHg 92%

    21 June, Thursday

    Time Temperature Precipitation Wind Pressure Humidity
    00:00 +21°C° 0 mm 0 mps 736 mmHg 96%
    01:00 +20°C° 0 mm 0 mps 735 mmHg 100%
    02:00 +20°C° 0 mm 0 mps 735 mmHg 100%
    03:00 +19°C° 0 mm 0 mps 735 mmHg 100%
    04:00 +18°C° 0 mm 0 mps 734 mmHg 100%
    05:00 +18°C° 0 mm 0 mps 734 mmHg 100%
    06:00 +18°C° 0 mm 0 mps 734 mmHg 100%
    07:00 +18°C° 0 mm 0 mps 734 mmHg 100%
    08:00 +22°C° 0 mm 1 mps 734 mmHg 99%
    09:00 +24°C° 0 mm 1 mps 734 mmHg 97%
    10:00 +26°C° 0 mm 2 mps 734 mmHg 91%
    11:00 +27°C° 0 mm 3 mps 733 mmHg 85%
    12:00 +27°C° 0 mm 2 mps 733 mmHg 85%
    13:00 +28°C° 0 mm 3 mps 732 mmHg 86%
    14:00 +28°C° 0 mm 3 mps 731 mmHg 88%
    15:00 +28°C° 0.1 mm 4 mps 731 mmHg 89%
    16:00 +28°C° 0.1 mm 4 mps 730 mmHg 89%
    17:00 +28°C° 0 mm 3 mps 730 mmHg 87%
    18:00 +28°C° 0 mm 1 mps 729 mmHg 88%
    19:00 +28°C° 0 mm 2 mps 729 mmHg 92%
    20:00 +27°C° 0 mm 2 mps 729 mmHg 93%
    21:00 +26°C° 0 mm 2 mps 728 mmHg 91%
    22:00 +25°C° 0 mm 1 mps 728 mmHg 86%
    23:00 +25°C° 0 mm 1 mps 728 mmHg 84%

    22 June, Friday

    Time Temperature Precipitation Wind Pressure Humidity
    00:00 +24°C° 0 mm 2 mps 728 mmHg 85%
    01:00 +23°C° 0 mm 2 mps 728 mmHg 86%
    02:00 +23°C° 0 mm 1 mps 728 mmHg 85%

    23 June, Saturday

    Time Temperature Precipitation Wind Pressure Humidity
    Show more